Winnemucca, NV

4:09 PM PST on February 20, 2018 (GMT -0800)
Winnemucca Municipal

Weather History for KWMC - January, 2012

Change the Weather History Date:

Thursday, January 26, 2012

  Actual Average Record
Temperature  
Mean Temperature 39 °F 31 °F  
Max Temperature 51 °F 43 °F 60 °F (1971)
Min Temperature 27 °F 20 °F -23 °F (1949)
Degree Days  
Heating Degree Days 26 34  
Month to date heating degree days 877 915  
Since 1 July heating degree days 3554 3588  
Cooling Degree Days 0 0  
Month to date cooling degree days 0 0  
Year to date cooling degree days 0 0  
Moisture  
Dew Point 35 °F    
Average Humidity 78    
Maximum Humidity 100    
Minimum Humidity 56    
Precipitation  
Precipitation 0.02 in 0.03 in 0.26 in (1967)
Month to date precipitation 0.75 0.75  
Year to date precipitation 0.75 0.75  
Snow  
Snow 0.00 in 0.10 in 2.90 in (1967)
Month to date snowfall 5.2 3.2  
Since 1 July snowfall 11.8 12.0  
Snow Depth T in    
Sea Level Pressure  
Sea Level Pressure 30.20 in    
Wind  
Wind Speed 8 mph (WSW)    
Max Wind Speed 21 mph    
Max Gust Speed 26 mph    
Visibility 10 miles    
Events Rain    
T = Trace of Precipitation, MM = Missing Value Source: NWS Daily Summary

Daily Weather History Graph

Daily Weather History Graph

Search for Another Location

Airport or City:

Trip Planner

Search our weather history database for the weather conditions in past years. The results will help you decide how hot, cold, wet, or windy it might be!

Date:

Astronomy

Jan. 26, 2012 Rise Set
Actual Time 7:07 AM PST 5:00 PM PST
Civil Twilight 6:37 AM PST 5:30 PM PST
Nautical Twilight 6:04 AM PST 6:03 PM PST
Astronomical Twilight 5:32 AM PST 6:35 PM PST
Moon 8:34 AM PST (1/26) 9:00 PM PST (1/26)
Length of Visible Light 10h 52m
Length of Day
9h 53m
Waxing Crescent, 13% of the Moon is Illuminated
Jan 26
Waxing Crescent
Jan 30
First Quarter
Feb 7
Full
Feb 14
Last Quarter
Feb 21
New

Hourly Weather History & Observations

Time (PST) Temp. Windchill Dew Point Humidity Pressure Visibility Wind Dir Wind Speed Gust Speed Precip Events Conditions
12:56 AM 34.0 °F 31.0 °F 32.0 °F 92% 30.29 in 10.0 mi SSW 3.5 mph - N/A   Scattered Clouds
1:56 AM 39.0 °F 34.0 °F 35.1 °F 86% 30.24 in 10.0 mi SW 6.9 mph - N/A   Scattered Clouds
2:56 AM 34.0 °F - 32.0 °F 92% 30.22 in 10.0 mi Calm Calm - N/A   Partly Cloudy
3:56 AM 39.9 °F 33.4 °F 36.0 °F 86% 30.19 in 10.0 mi South 10.4 mph - N/A   Scattered Clouds
4:56 AM 41.0 °F 34.7 °F 36.0 °F 82% 30.18 in 10.0 mi South 10.4 mph - N/A   Overcast
5:56 AM 42.1 °F 36.1 °F 36.0 °F 79% 30.17 in 10.0 mi SSW 10.4 mph - N/A   Overcast
6:56 AM 42.1 °F 37.7 °F 37.0 °F 82% 30.17 in 10.0 mi South 6.9 mph - 0.00 in   Overcast
7:56 AM 43.0 °F 37.2 °F 37.0 °F 80% 30.17 in 10.0 mi South 10.4 mph - N/A   Overcast
8:56 AM 46.0 °F 41.9 °F 37.0 °F 71% 30.17 in 10.0 mi South 8.1 mph - N/A   Overcast
9:56 AM 48.9 °F - 39.9 °F 71% 30.19 in 10.0 mi WSW 9.2 mph - 0.00 in Rain Light Rain
10:56 AM 48.9 °F - 42.1 °F 77% 30.19 in 10.0 mi WSW 12.7 mph 19.6 mph 0.02 in   Overcast
11:20 AM 50.0 °F - 42.8 °F 76% 30.19 in 10.0 mi WSW 18.4 mph 25.3 mph N/A   Scattered Clouds
11:56 AM 51.1 °F - 41.0 °F 68% 30.17 in 10.0 mi WSW 17.3 mph 23.0 mph N/A   Overcast
12:56 PM 51.1 °F - 39.9 °F 66% 30.15 in 10.0 mi WSW 12.7 mph - N/A   Overcast
1:56 PM 51.1 °F - 39.9 °F 66% 30.14 in 10.0 mi West 11.5 mph - N/A   Overcast
2:56 PM 50.0 °F - 35.1 °F 57% 30.15 in 10.0 mi West 10.4 mph - N/A   Overcast
3:56 PM 48.9 °F - 36.0 °F 61% 30.14 in 10.0 mi West 10.4 mph - N/A   Mostly Cloudy
4:56 PM 46.0 °F 42.5 °F 37.0 °F 71% 30.16 in 10.0 mi WNW 6.9 mph - N/A   Overcast
5:56 PM 42.1 °F - 37.9 °F 85% 30.19 in 10.0 mi Calm Calm - 0.00 in   Overcast
6:56 PM 39.9 °F 34.5 °F 35.1 °F 83% 30.23 in 10.0 mi WNW 8.1 mph - N/A   Clear
7:56 PM 37.0 °F 34.5 °F 34.0 °F 89% 30.25 in 10.0 mi NNW 3.5 mph - N/A   Partly Cloudy
8:56 PM 34.0 °F 29.8 °F 30.9 °F 89% 30.27 in 10.0 mi NNE 4.6 mph - N/A   Scattered Clouds
10:56 PM 30.9 °F 26.2 °F 21.9 °F 69% 30.34 in 10.0 mi NNE 4.6 mph - N/A   Clear
11:56 PM 30.9 °F 24.3 °F 19.0 °F 61% 30.34 in 10.0 mi WNW 6.9 mph - N/A   Clear